Regional Weather Roundup
Issued by NWS

Home | Current Version | Previous Version | Graphics & Text | Print | Product List | Glossary On
Versions: 1 2 3 4 5 6 7 8 9 10 11 12 13 14 15 16 17 18 19 20 21 22 23 24 25 26 27 28 29 30 31 32 33 34 35 36 37 38 39 40 41 42 43 44 45 46 47 48 49 50
000
ASUS43 KBIS 281210
RWRND

NORTH DAKOTA REGIONAL WEATHER ROUNDUP
NATIONAL WEATHER SERVICE BISMARCK ND
700 AM CDT SAT MAY 28 2016

NOTE: "FAIR" INDICATES FEW OR NO CLOUDS BELOW 12,000 FEET WITH NO
SIGNIFICANT WEATHER AND/OR OBSTRUCTIONS TO VISIBILITY.


NDZ001>003-009>011-017-281300-
NORTHWEST NORTH DAKOTA

CITY           SKY/WX    TMP DP  RH WIND       PRES   REMARKS
WILLISTON      CLOUDY    55  51  86 E9        29.89S
6HR MIN TEMP:  55; 6HR MAX TEMP:  58;

MINOT          CLOUDY    56  53  90 N7        29.89R
MINOT AFB      CLOUDY    53  52  94 N9        29.89R
$$

NDZ018>021-031>035-040>046-281300-
SOUTHWEST NORTH DAKOTA

CITY           SKY/WX    TMP DP  RH WIND       PRES   REMARKS
BISMARCK       CLOUDY    57  55  93 NE9       29.87R FOG
6HR MIN TEMP:  50; 6HR MAX TEMP:  57;

DICKINSON      FOG       48  48 100 NE8       29.85S VSB<1/4
GARRISON         N/A     56  54  93 NE7       29.88R
6HR MIN TEMP:  56; 6HR MAX TEMP:  57;

HETTINGER ARPT CLOUDY    45  43  93 CALM      29.87S
$$

NDZ004>008-012>016-024-026-027-054-281300-
NORTHEAST NORTH DAKOTA

CITY           SKY/WX    TMP DP  RH WIND       PRES   REMARKS
GRAND FORKS    CLOUDY    62  56  80 CALM      29.83R
GRND FRKS AFB  CLOUDY    61  58  91 SE6       29.84R
DEVILS LAKE    CLOUDY    56  54  93 N7        29.87S
$$

NDZ022-023-025-028>030-036>039-047>053-281300-
SOUTHEAST NORTH DAKOTA

CITY           SKY/WX    TMP DP  RH WIND       PRES   REMARKS
FARGO          CLOUDY    61  57  87 NE7       29.80F
6HR MIN TEMP:  58; 6HR MAX TEMP:  63;

JAMESTOWN      CLOUDY    59  58  96 N9        29.82S FOG
$$




USA.gov is the U.S. government's official web portal to all federal, state and local government web resources and services.